Regional Weather Roundup
Issued by NWS Spokane, WA

Home | Current Version | Previous Version | Text Only | Print | Product List | Glossary On
Versions: 1 2 3 4 5 6 7 8 9 10 11 12 13 14 15 16 17 18 19 20 21 22 23 24 25 26 27 28 29 30 31 32 33 34 35 36 37 38 39 40 41 42 43 44 45 46 47 48 49 50
697
NZUS01 KOTX 240025
RWROTX

Eastern Washington/Northern Idaho Roundup
National Weather Service, Spokane WA
400 PM PST FRI FEB 23 2018

Note: "fair" indicated few or no clouds below 12,000 feet with no
significant weather and/or obstructions to visibility.

...Northeast Washington and Northern Idaho Panhandle...

CITY           SKY/WX    TMP DP  RH WIND       PRES   REMARKS
Spokane Intl   LGT SNOW  23  17  78 SW17      30.19F FOG     WCI   9
Spokane Downto CLOUDY    27  13  55 SW16      30.23F WCI  15
Coeur d Alene  LGT SNOW  23  18  81 S10       30.21S WCI  12
Deer Park      LGT SNOW  23  18  81 SW14      30.19F WCI  11
Sandpoint      LGT SNOW  23  18  80 SW3       30.19F
Bonners Ferry  FAIR      23  10  58 S9        30.13S WCI  13

...Southeast Washington and southern Idaho Panhandle...

CITY           SKY/WX    TMP DP  RH WIND       PRES   REMARKS
Walla Walla    CLOUDY    33  14  45 S16       30.31F WCI  23
Pullman/Moscow CLOUDY    25  18  74 W12       30.24F WCI  14
Lewiston       CLOUDY    32  14  47 NW10      30.28S WCI  24
Lowell           N/A     31  18  58 SE6       30.29R WCI  25
Grangeville    CLOUDY    21  14  73 SE5       30.17S WCI  15

...Columbia Basin...

CITY           SKY/WX    TMP DP  RH WIND       PRES   REMARKS
Ephrata        CLOUDY    27  24  89 S6        30.22F WCI  20
Moses Lake     CLOUDY    26  23  88 S10       30.24F WCI  16
Pasco          LGT SNOW  29  24  82 SW16      30.36S WCI  17
Richland       LGT SNOW  31  28  90 S8        30.34F WCI  23
Hermiston      LGT SNOW  30  26  85 S5        30.35S FOG     WCI  25
Pendleton      LGT SNOW  29  20  69 W17       30.32R WCI  17

...East Slopes Cascades...

CITY           SKY/WX    TMP DP  RH WIND       PRES   REMARKS
The Dalles     MOSUNNY   36  22  56 S8        30.36F
Yakima         PTSUNNY   36  17  46 S10       30.25F
Ellensburg     CLOUDY    32  18  56 NW16      30.19F WCI  21
Stampede Pass  CLOUDY    20  15  81 VRB3      30.07F
Wenatchee      PTSUNNY   30  17  58 E10       30.21F WCI  21
Winthrop       FAIR      20   4  50 CALM      30.18F
Omak           CLOUDY    24  21  88 S9        30.20F WCI  14
Sunnyside      CLOUDY    32  23  68 E9        30.30S WCI  24

...Southern British Columbia...

CITY           SKY/WX    TMP DP  RH WIND       PRES   REMARKS
Penticton      FLURRIES  23  18  80 S20G29    30.17F WCI   8
Castlegar      FLURRIES  23  16  74 S8        30.18F WCI  14
Cranbrook      CLOUDY    19  10  68 SE5       30.02F WCI  13
Osoyoos          N/A     23  21  93 S3          N/A
Creston          N/A     21  12  68 W1          N/A

...Western Montana...

CITY           SKY/WX    TMP DP  RH WIND       PRES   REMARKS
Kalispell      CLOUDY    18  12  77 SW5       30.09F WCI  11
Missoula       CLOUDY    23  11  60 W10       30.10S WCI  12

...Neighboring Cities...

CITY           SKY/WX    TMP DP  RH WIND       PRES   REMARKS
Seattle        FLURRIES  34  27  75 S12       30.24F WCI  25
Portland       CLOUDY    38  26  62 S8        30.40F
Boise          SUNNY     30  11  45 NW10      30.25R WCI  21
Great Falls    CLEAR     20   8  60 SW25      29.81F WCI   2
Calgary        CLOUDY    28   5  37 W21G30    29.59S WCI  15



USA.gov is the U.S. government's official web portal to all federal, state and local government web resources and services.